Terminal Aerodrome Forecast
Issued by NWS Brownsville, TX

Home | Current Version | Previous Version | Text Only | Print | Product List | Glossary On
Versions: 1 2 3 4 5 6 7 8 9 10 11 12 13 14 15 16 17 18 19 20 21 22
000
FTUS44 KBRO 290500
TAFBRO
TAF
KBRO 290522Z 2906/3006 14009KT P6SM SKC
     FM291000 16008KT 5SM BR BKN010
     FM291500 16019G25KT P6SM BKN035
     FM300000 15010KT P6SM SCT035=

USA.gov is the U.S. government's official web portal to all federal, state and local government web resources and services.